| time (UTC) | temp C | wind direction | speed KPH | gust KPH | rain 1hr cm | rain 24hr cm | rain mn cm | humidity % | barometer mb |
| 20260503214704 | 19 | 255 | 4.8 | 9.7 | 0.00 | 0.00 | 0.00 | 34 | 1016.5 |
| 20260503214204 | 19 | 251 | 9.7 | 14.5 | 0.00 | 0.00 | 0.00 | 32 | 1016.5 |
| 20260503211704 | 18 | 112 | 4.8 | 11.3 | 0.00 | 0.00 | 0.00 | 33 | 1016.8 |
| 20260503210704 | 18 | 251 | 9.7 | 11.3 | 0.00 | 0.00 | 0.00 | 33 | 1017.0 |
| 20260503210203 | 18 | 248 | 8.0 | 14.5 | 0.00 | 0.00 | 0.00 | 31 | 1017.0 |
| 20260503204204 | 18 | 117 | 4.8 | 14.5 | 0.00 | 0.00 | 0.00 | 33 | 1017.2 |
| 20260503201704 | 18 | 246 | 4.8 | 12.9 | 0.00 | 0.00 | 0.00 | 31 | 1017.6 |
| 20260503201203 | 18 | 136 | 8.0 | 11.3 | 0.00 | 0.00 | 0.00 | 32 | 1017.6 |
| 20260503200204 | 19 | 244 | 4.8 | 11.3 | 0.00 | 0.00 | 0.00 | 32 | 1017.6 |
| 20260503194204 | 18 | 262 | 9.7 | 14.5 | 0.00 | 0.00 | 0.00 | 30 | 1018.1 |
| 20260503193704 | 17 | 200 | 4.8 | 11.3 | 0.00 | 0.00 | 0.00 | 32 | 1018.3 |
| 20260503193204 | 18 | 145 | 9.7 | 14.5 | 0.00 | 0.00 | 0.00 | 33 | 1018.3 |
| 20260503191704 | 18 | 104 | 8.0 | 14.5 | 0.00 | 0.00 | 0.00 | 33 | 1018.6 |
| 20260503191204 | 18 | 270 | 6.4 | 9.7 | 0.00 | 0.00 | 0.00 | 30 | 1018.7 |
| 20260503190704 | 17 | 305 | 8.0 | 11.3 | 0.00 | 0.00 | 0.00 | 32 | 1018.7 |
| 20260503184704 | 17 | 60 | 4.8 | 11.3 | 0.00 | 0.00 | 0.00 | 31 | 1019.2 |
| 20260503183704 | 17 | 281 | 6.4 | 12.9 | 0.00 | 0.00 | 0.00 | 32 | 1019.3 |
| 20260503180704 | 16 | 100 | 8.0 | 11.3 | 0.00 | 0.00 | 0.00 | 31 | 1019.5 |
| 20260503180204 | 16 | 208 | 4.8 | 9.7 | 0.00 | 0.00 | 0.00 | 31 | 1019.5 |
| 20260503173204 | 16 | 45 | 6.4 | 11.3 | 0.00 | 0.00 | 0.00 | 32 | 1020.0 |
| 20260503171704 | 15 | 147 | 4.8 | 9.7 | 0.00 | 0.00 | 0.00 | 34 | 1020.2 |
| 20260503150704 | 13 | 222 | 3.2 | 8.0 | 0.00 | 0.00 | 0.00 | 41 | 1021.3 |
| 20260503131204 | 8 | 112 | 1.6 | 3.2 | 0.00 | 0.00 | 0.00 | 74 | 1021.5 |
| 20260503130703 | 7 | 156 | 3.2 | 3.2 | 0.00 | 0.00 | 0.00 | 74 | 1021.5 |
| 20260503110704 | 0 | 112 | 0.0 | 0.0 | 0.00 | 0.00 | 0.00 | 95 | 1020.3 |
| 20260503110204 | 0 | 292 | 0.0 | 0.0 | 0.00 | 0.00 | 0.00 | 95 | 1020.3 |
| 20260503100204 | 1 | 227 | 0.0 | 0.0 | 0.00 | 0.00 | 0.00 | 95 | 1019.7 |
| 20260503081204 | 3 | 226 | 0.0 | 0.0 | 0.00 | 0.00 | 0.00 | 87 | 1019.3 |
| 20260503080704 | 2 | 202 | 0.0 | 0.0 | 0.00 | 0.00 | 0.00 | 88 | 1019.3 |
| 20260503080204 | 2 | 286 | 0.0 | 0.0 | 0.00 | 0.00 | 0.00 | 88 | 1019.3 |
| 20260503071704 | 3 | 90 | 0.0 | 0.0 | 0.00 | 0.00 | 0.00 | 90 | 1018.8 |
| 20260503071204 | 3 | 76 | 0.0 | 0.0 | 0.00 | 0.00 | 0.00 | 91 | 1018.8 |
| 20260503070204 | 2 | 251 | 0.0 | 0.0 | 0.00 | 0.00 | 0.00 | 92 | 1018.8 |
| 20260503060204 | 3 | 258 | 0.0 | 0.0 | 0.00 | 0.00 | 0.00 | 89 | 1018.6 |
| 20260503054204 | 3 | 250 | 0.0 | 0.0 | 0.00 | 0.00 | 0.00 | 87 | 1018.6 |
| 20260503051204 | 4 | 281 | 0.0 | 0.0 | 0.00 | 0.00 | 0.00 | 89 | 1018.5 |
| 20260503050204 | 4 | 257 | 0.0 | 0.0 | 0.00 | 0.00 | 0.00 | 88 | 1018.5 |
| 20260503043704 | 5 | 262 | 0.0 | 0.0 | 0.00 | 0.00 | 0.00 | 86 | 1018.3 |
| 20260503040704 | 5 | 279 | 0.0 | 0.0 | 0.00 | 0.00 | 0.00 | 83 | 1018.1 |
| 20260503033704 | 6 | 222 | 0.0 | 0.0 | 0.00 | 0.00 | 0.00 | 80 | 1018.0 |
| 20260503031204 | 7 | 270 | 0.0 | 0.0 | 0.00 | 0.00 | 0.00 | 80 | 1018.0 |
| 20260503030704 | 7 | 270 | 0.0 | 0.0 | 0.00 | 0.00 | 0.00 | 80 | 1018.0 |
| 20260503023205 | 7 | 258 | 0.0 | 0.0 | 0.00 | 0.00 | 0.00 | 80 | 1017.8 |
| 20260503021704 | 7 | 257 | 0.0 | 0.0 | 0.00 | 0.00 | 0.00 | 78 | 1017.8 |
| 20260503021204 | 7 | 253 | 0.0 | 0.0 | 0.00 | 0.00 | 0.00 | 79 | 1017.7 |
| 20260503014204 | 8 | 112 | 0.0 | 0.0 | 0.00 | 0.00 | 0.00 | 73 | 1017.3 |
| 20260503011704 | 8 | 203 | 0.0 | 0.0 | 0.00 | 0.00 | 0.00 | 75 | 1017.1 |
| 20260503011204 | 8 | 268 | 0.0 | 0.0 | 0.00 | 0.00 | 0.00 | 74 | 1017.1 |
| 20260503010204 | 8 | 261 | 0.0 | 0.0 | 0.00 | 0.00 | 0.00 | 73 | 1017.1 |
| 20260503004204 | 9 | 283 | 0.0 | 0.0 | 0.00 | 0.00 | 0.00 | 68 | 1016.6 |
| 20260503003204 | 9 | 266 | 0.0 | 0.0 | 0.00 | 0.00 | 0.00 | 66 | 1016.6 |
| 20260503001704 | 10 | 261 | 0.0 | 0.0 | 0.00 | 0.00 | 0.00 | 63 | 1016.3 |
| 20260503000704 | 11 | 225 | 0.0 | 0.0 | 0.00 | 0.00 | 0.00 | 59 | 1016.3 |
| 20260503000204 | 11 | 238 | 0.0 | 0.0 | 0.00 | 0.00 | 0.00 | 61 | 1016.3 |
| 20260502234203 | 14 | 258 | 0.0 | 0.0 | 0.00 | 0.00 | 0.00 | 49 | 1016.2 |
| 20260502231704 | 13 | 151 | 0.0 | 0.0 | 0.00 | 0.00 | 0.00 | 52 | 1016.0 |
| 20260502231204 | 13 | 218 | 0.0 | 3.2 | 0.00 | 0.00 | 0.00 | 53 | 1015.8 |
| 20260502224704 | 13 | 2 | 4.8 | 8.0 | 0.00 | 0.00 | 0.00 | 49 | 1015.8 |
| 20260502224204 | 13 | 114 | 4.8 | 8.0 | 0.00 | 0.00 | 0.00 | 48 | 1015.8 |
| 20260502223704 | 14 | 284 | 1.6 | 3.2 | 0.00 | 0.00 | 0.00 | 48 | 1015.9 |
| 20260502223204 | 15 | 262 | 3.2 | 4.8 | 0.00 | 0.00 | 0.00 | 49 | 1016.0 |
| 20260502221204 | 12 | 303 | 0.0 | 8.0 | 0.00 | 0.00 | 0.00 | 57 | 1016.0 |
| 20260502220704 | 12 | 223 | 3.2 | 8.0 | 0.00 | 0.00 | 0.00 | 56 | 1016.0 |